Bettles, AK

11:52 AM AKDT on July 21, 2019 (GMT -0800)
Bettles

Weather History for PABT - May, 2019

Change the Weather History Date:

Wednesday, May 22, 2019

  Actual Average Record
Temperature  
Mean Temperature 58 °F -  
Max Temperature 75 °F 56 °F 77 °F (1969)
Min Temperature 42 °F 35 °F 27 °F (1968)
Degree Days  
Heating Degree Days 6    
Growing Degree Days 8 (Base 50)    
Moisture  
Dew Point 35 °F    
Average Humidity 42    
Maximum Humidity 67    
Minimum Humidity 21    
Precipitation  
Precipitation 0.00 in - - ()
Sea Level Pressure  
Sea Level Pressure 30.04 in    
Wind  
Wind Speed 5 mph (NNW)    
Max Wind Speed 9 mph    
Max Gust Speed -    
Visibility 10 miles    
Events      
Averages and records for this station are not official NWS values.
T = Trace of Precipitation, MM = Missing Value Source: NWS Daily Summary

Daily Weather History Graph

Daily Weather History Graph

Search for Another Location

Airport or City:

Astronomy

May. 22, 2019 Rise Set
Actual Time 3:40 AM AKDT 12:30 AM AKDT
Civil Twilight Sun does not set Sun does not set
Nautical Twilight Sun does not set Sun does not set
Astronomical Twilight Sun does not set Sun does not set
Moon 4:13 AM AKDT (5/22) 6:14 AM AKDT (5/22)
Length of Visible Light 24h 00m
Length of Day
20h 50m
Waning Gibbous, 84% of the Moon is Illuminated
May 22
Waning Gibbous
May 26
Last Quarter
Jun 3
New
Jun 9
First Quarter
Jun 17
Full

Hourly Weather History & Observations

Time (AKDT) Temp. Windchill Dew Point Humidity Pressure Visibility Wind Dir Wind Speed Gust Speed Precip Events Conditions
12:53 AM 48.9 °F - 36.0 °F 61% 30.09 in 10.0 mi NNW 3.5 mph - N/A   Partly Cloudy
1:53 AM 46.9 °F - 35.1 °F 63% 30.10 in 10.0 mi Calm Calm - N/A   Partly Cloudy
2:53 AM 45.0 °F 41.8 °F 33.1 °F 63% 30.11 in 10.0 mi NNE 5.8 mph - N/A   Partly Cloudy
3:53 AM 44.1 °F 40.1 °F 33.1 °F 65% 30.12 in 10.0 mi NNE 6.9 mph - N/A   Partly Cloudy
4:53 AM 44.1 °F 40.8 °F 32.0 °F 63% 30.13 in 10.0 mi North 5.8 mph - N/A   Partly Cloudy
5:53 AM 42.1 °F 39.2 °F 32.0 °F 67% 30.14 in 10.0 mi North 4.6 mph - N/A   Partly Cloudy
6:53 AM 46.9 °F - 33.1 °F 59% 30.13 in 10.0 mi NNW 4.6 mph - N/A   Partly Cloudy
7:53 AM 51.1 °F - 34.0 °F 52% 30.12 in 10.0 mi NNW 5.8 mph - N/A   Partly Cloudy
8:53 AM 55.0 °F - 35.1 °F 47% 30.11 in 10.0 mi NW 4.6 mph - N/A   Partly Cloudy
9:53 AM 57.9 °F - 35.1 °F 42% 30.10 in 10.0 mi NW 5.8 mph - N/A   Partly Cloudy
10:53 AM 62.1 °F - 36.0 °F 38% 30.09 in 10.0 mi NW 5.8 mph - N/A   Partly Cloudy
11:53 AM 66.0 °F - 36.0 °F 33% 30.08 in 10.0 mi NW 4.6 mph - N/A   Partly Cloudy
12:53 PM 69.1 °F - 34.0 °F 27% 30.06 in 10.0 mi Variable 4.6 mph - N/A   Partly Cloudy
1:53 PM 71.1 °F - 30.9 °F 23% 30.05 in 10.0 mi Variable 4.6 mph - N/A   Scattered Clouds
2:53 PM 71.1 °F - 32.0 °F 24% 30.03 in 10.0 mi NW 9.2 mph - N/A   Scattered Clouds
3:53 PM 72.0 °F - 30.9 °F 22% 30.01 in 10.0 mi NNW 9.2 mph - N/A   Scattered Clouds
4:53 PM 73.0 °F - 32.0 °F 22% 29.98 in 10.0 mi NW 6.9 mph - N/A   Scattered Clouds
5:53 PM 73.9 °F - 32.0 °F 21% 29.96 in 10.0 mi North 8.1 mph - N/A   Scattered Clouds
6:53 PM 73.9 °F - 33.1 °F 22% 29.94 in 10.0 mi North 6.9 mph - N/A   Scattered Clouds
7:53 PM 73.9 °F - 36.0 °F 25% 29.92 in 10.0 mi NNE 8.1 mph - N/A   Scattered Clouds
8:53 PM 70.0 °F - 37.0 °F 30% 29.91 in 10.0 mi NNE 4.6 mph - N/A   Mostly Cloudy
9:53 PM 68.0 °F - 42.1 °F 39% 29.91 in 10.0 mi Variable 6.9 mph - N/A   Mostly Cloudy
10:53 PM 63.0 °F - 45.0 °F 52% 29.90 in 10.0 mi North 3.5 mph - 0.00 in   Mostly Cloudy
11:53 PM 62.1 °F - 44.1 °F 52% 29.90 in 10.0 mi North 4.6 mph - N/A   Mostly Cloudy